Theta_e
334 342 350 351 351 352 351 351 351 351 351 347 346 345 344 343 342 341 339 339 341 342 342 342 344 344 343 344 344 342 341 340 340 339 340 341 341 342 342 342 345 342 347
338 344 348 352 351 352 351 352 350 349 350 347 345 344 343 342 341 340 339 337 337 340 341 342 343 342 343 343 343 341 340 339 338 338 336 338 339 339 339 339 342 340 344
342 345 347 350 352 352 352 352 350 350 350 347 345 343 343 341 340 339 337 336 335 337 339 340 341 341 342 344 343 341 340 338 336 335 333 326 330 337 337 337 337 340 341
344 346 346 348 352 352 351 351 350 350 350 347 344 342 342 339 339 338 336 334 334 335 337 338 340 339 341 344 342 341 339 337 334 333 326 325 327 336 336 335 335 336 336
343 345 345 347 351 351 352 351 351 350 350 348 344 342 340 339 337 336 333 332 331 332 334 337 339 339 341 341 339 337 335 333 331 327 325 324 324 332 335 334 332 332 333
342 344 343 347 350 351 351 350 350 349 348 348 343 342 340 338 336 334 332 329 329 330 332 335 335 337 339 337 336 334 332 329 325 321 322 325 323 333 334 333 332 331 333
339 343 343 345 348 349 349 350 350 349 348 347 344 341 340 338 336 335 331 327 326 326 328 331 331 334 334 332 330 327 325 322 314 314 315 320 325 332 333 332 332 331 331
337 341 342 339 341 344 346 346 348 348 347 346 344 341 339 338 336 335 333 326 324 323 326 328 328 328 328 325 321 319 318 316 311 310 313 316 330 331 332 331 331 331 331
334 338 340 341 338 337 341 342 343 345 345 344 343 342 340 338 337 335 334 327 325 323 322 323 323 323 322 320 317 315 314 314 304 307 312 315 329 329 331 331 331 330 330
320 326 334 338 337 339 338 335 337 339 340 341 340 336 334 334 333 332 330 330 327 326 324 322 321 320 318 316 314 312 311 310 304 307 309 318 326 327 328 328 328 330 332
311 312 319 336 334 335 336 335 332 334 335 335 334 330 329 333 330 328 328 330 330 327 324 321 318 316 315 314 312 310 306 300 305 308 312 325 325 326 326 325 325 325 326
308 308 310 315 326 334 337 338 338 337 336 338 337 333 333 332 330 329 324 326 328 326 324 322 319 314 308 303 302 305 300 301 305 309 316 324 326 326 325 324 324 324 324
306 307 309 310 311 320 329 335 336 332 332 332 331 332 332 330 328 327 324 322 320 315 312 312 310 308 306 304 303 301 301 303 305 309 313 320 323 326 327 326 326 325 324
304 306 308 309 310 310 313 327 334 332 332 333 331 331 328 328 327 325 323 321 318 316 313 312 310 308 307 306 304 301 300 301 303 304 306 313 318 321 322 323 324 324 325
303 305 306 307 308 310 310 315 331 331 331 334 331 329 329 327 325 324 322 320 318 316 313 311 309 306 305 304 301 299 298 297 296 297 300 308 312 313 317 320 321 322 322
302 303 305 307 310 311 311 319 326 327 327 330 332 330 328 328 325 323 320 317 316 314 312 310 308 305 303 300 298 297 295 293 292 290 290 294 304 307 311 315 318 319 319
301 302 304 306 310 310 310 319 321 321 322 322 322 328 328 327 324 321 318 315 312 312 309 306 304 304 301 299 296 294 291 290 289 288 288 288 289 300 304 308 311 312 314
300 301 304 310 309 314 317 317 316 316 316 316 318 321 325 324 322 319 315 313 311 308 305 303 302 300 298 296 292 290 288 288 287 287 286 287 286 286 293 301 304 308 311
299 301 303 306 308 312 312 311 311 311 311 312 313 314 316 318 318 316 312 310 306 304 301 300 298 299 295 292 289 287 285 284 285 286 285 285 285 284 285 294 299 302 304
298 300 302 306 310 309 306 305 305 304 304 306 308 309 310 311 311 310 307 305 301 297 296 297 296 292 293 290 288 286 284 283 283 282 282 284 283 283 284 285 286 289 296
297 299 300 306 308 305 305 304 304 301 300 299 301 303 303 305 307 305 303 299 296 295 295 295 294 293 288 288 286 285 284 282 281 281 280 281 282 282 283 284 285 284 284
297 302 303 306 305 305 305 302 300 299 295 296 296 296 299 299 300 301 299 295 292 292 291 292 292 284 283 283 286 285 282 285 284 281 280 281 279 281 282 283 283 282 281
296 301 303 305 304 303 300 296 294 295 294 293 293 293 292 294 294 295 294 291 287 290 290 286 287 287 282 280 282 288 283 284 282 283 279 279 279 279 279 280 281 281 280
296 301 303 305 304 301 297 298 298 299 297 294 293 290 290 291 290 289 288 286 285 284 285 283 283 282 282 280 280 280 279 281 278 276 278 278 278 278 278 279 279 279 279
296 300 302 305 304 298 298 299 300 299 291 291 289 288 287 287 287 285 284 283 283 282 281 281 280 280 280 279 280 279 278 277 277 276 274 276 277 278 278 278 278 278 278
296 300 301 303 300 297 298 298 298 291 290 288 287 287 286 286 284 282 282 281 281 281 281 280 280 280 280 280 280 279 278 277 276 275 274 274 275 277 277 278 277 277 277
Wind_Speed
4 5 11 12 13 13 12 12 12 12 15 15 15 15 15 15 15 15 15 16 14 16 15 16 15 16 17 16 16 19 20 20 20 21 21 21 21 21 21 20 16 15 21
8 6 10 13 12 13 12 12 11 11 14 15 14 14 15 14 15 14 15 15 15 14 15 16 14 16 16 14 18 18 19 19 18 17 16 16 18 20 21 21 20 17 21
9 8 8 12 12 13 13 11 12 13 15 15 14 13 14 13 15 15 14 15 14 15 16 16 14 15 14 14 18 18 19 19 18 18 16 7 10 20 20 20 20 20 20
8 7 7 11 12 13 12 11 12 13 15 15 13 14 13 14 15 15 15 15 16 15 14 15 15 15 15 17 21 19 19 18 18 16 8 8 8 20 20 20 21 21 20
7 7 7 11 12 12 12 11 11 11 14 15 13 14 13 14 15 15 14 15 15 15 15 16 16 16 17 19 19 19 18 17 16 11 7 7 6 16 20 20 18 19 18
7 6 9 11 12 12 11 11 11 11 13 14 14 14 14 14 14 14 14 15 15 15 16 16 17 17 18 19 18 18 17 16 14 9 8 9 7 18 19 20 20 20 19
6 7 8 11 12 12 12 11 12 12 12 14 14 14 14 14 14 14 15 15 15 15 16 16 17 17 18 19 19 18 19 17 9 9 8 7 9 19 20 20 20 21 21
7 8 9 10 11 11 11 11 11 12 12 12 14 14 14 13 14 14 15 15 15 16 16 16 17 17 18 19 19 20 19 17 10 9 8 6 16 19 19 19 19 20 20
4 4 6 7 9 11 12 11 11 11 12 13 14 13 12 12 12 13 13 15 15 16 17 17 17 18 18 19 20 20 19 19 9 6 8 5 17 19 20 19 19 18 19
4 5 3 6 5 5 6 10 11 11 11 12 12 12 11 11 11 11 10 13 15 16 17 17 17 18 19 19 20 20 19 18 10 8 6 7 18 20 20 20 20 21 21
3 4 4 3 6 5 6 6 8 10 12 15 13 13 10 7 7 6 8 13 15 16 17 18 18 18 18 20 20 20 17 6 8 6 4 16 20 21 21 21 21 21 21
4 2 3 3 5 5 3 4 4 5 5 7 8 9 5 5 5 6 8 11 14 15 17 18 19 17 13 6 6 13 6 7 7 7 7 19 20 20 20 20 20 21 21
4 2 2 2 2 2 2 3 2 3 3 4 5 6 6 5 5 4 4 4 4 8 5 8 7 6 8 6 7 6 7 8 6 7 14 20 21 22 23 23 23 22 22
5 5 3 1 1 1 1 2 3 4 5 5 6 7 7 5 5 4 4 4 4 3 6 6 5 6 8 8 9 9 9 7 6 7 13 21 23 24 22 22 21 21 21
6 6 5 2 2 2 3 2 2 3 4 8 7 7 6 7 6 4 4 4 4 5 5 6 6 6 8 9 9 10 10 10 10 6 7 21 24 26 24 25 23 24 26
6 7 5 4 4 3 3 3 2 3 3 6 7 8 8 7 7 5 5 4 5 5 5 5 6 7 8 9 10 10 10 10 11 10 7 9 26 25 26 25 26 26 26
6 6 6 5 4 5 5 3 3 2 4 3 4 7 9 9 9 8 6 5 5 5 9 7 7 7 10 9 10 9 9 10 9 10 9 8 8 23 25 26 26 25 25
6 8 6 4 5 5 6 3 3 3 3 3 4 4 8 8 10 9 7 6 4 6 7 5 6 9 8 8 7 6 6 8 9 10 9 8 7 7 15 23 25 24 26
8 7 6 6 6 6 4 4 4 5 3 3 4 4 7 9 9 9 7 7 8 6 6 6 5 9 9 8 8 7 6 7 6 7 10 9 9 8 6 19 22 25 25
8 7 6 5 6 7 4 4 4 4 3 3 3 4 7 7 10 9 7 8 8 7 7 6 11 5 8 9 10 8 5 4 5 6 6 7 8 8 7 8 8 11 23
7 8 8 9 7 7 4 3 3 4 1 3 4 5 7 7 9 11 9 8 6 9 10 10 10 14 5 7 7 5 5 5 7 5 4 5 6 5 7 7 6 6 7
11 12 10 11 10 8 5 3 3 4 3 3 2 4 5 7 7 9 9 9 7 9 10 9 11 5 3 1 4 3 4 0 3 5 4 5 6 4 7 7 8 9 8
13 15 13 12 12 8 8 7 5 6 4 3 3 3 2 7 6 7 8 8 7 8 9 6 8 9 5 3 4 4 4 4 3 1 4 4 5 4 4 5 7 8 7
16 12 16 13 13 9 11 8 10 7 6 3 3 3 3 4 7 6 8 7 7 5 8 5 4 4 6 6 3 4 4 5 5 2 1 2 3 5 5 4 4 5 5
11 14 13 12 12 11 11 11 10 8 4 5 6 7 5 4 6 6 6 7 7 5 6 8 7 7 4 5 4 3 3 4 4 4 3 2 2 3 3 3 3 3 5
9 13 12 14 12 12 12 12 12 12 11 9 8 7 5 4 5 5 6 6 6 7 7 6 6 7 6 5 4 4 4 4 3 4 4 1 1 2 1 2 3 3 3
Wind_Direction
199 172 141 148 143 142 132 128 122 115 107 98 94 90 83 79 75 75 73 73 72 75 71 75 70 72 71 66 78 73 71 69 63 60 56 54 54 52 42 39 42 52 51
146 159 145 140 141 139 138 128 128 118 112 105 96 92 88 80 76 73 75 75 72 77 77 74 72 74 69 64 93 83 77 71 64 55 54 53 54 53 52 40 36 42 44
144 151 145 135 139 139 138 136 134 127 118 112 102 94 87 82 79 79 75 74 74 72 74 75 72 77 61 74 96 87 80 73 65 57 47 34 52 54 51 49 45 40 43
144 142 139 138 141 140 138 137 138 133 125 117 112 102 94 87 82 79 74 71 70 71 74 77 77 75 69 76 84 80 75 71 67 59 51 40 41 54 55 49 47 43 40
138 141 144 144 144 143 142 136 138 135 132 124 114 103 95 91 88 83 79 76 75 74 75 75 74 72 76 79 81 82 76 67 63 52 41 43 34 53 54 53 49 46 41
147 145 152 153 150 148 143 138 142 140 133 122 118 111 104 96 88 85 80 78 75 76 77 79 76 75 81 78 79 77 73 66 56 45 37 35 40 55 55 54 50 48 46
167 155 162 166 159 157 151 147 144 144 139 129 122 115 107 101 97 89 83 81 78 76 76 79 78 77 79 76 72 69 64 59 51 44 35 24 49 54 55 55 53 52 49
176 167 171 173 165 163 157 151 145 148 145 136 124 122 117 106 97 92 86 85 83 81 81 79 78 77 76 74 73 69 65 59 48 41 31 21 48 55 57 55 56 54 51
129 146 162 167 170 171 164 154 150 148 148 141 131 127 119 112 102 92 87 88 85 81 80 80 79 79 77 75 73 70 66 61 52 40 29 20 51 54 50 50 54 53 51
82 91 109 154 167 146 151 151 148 147 147 142 136 128 128 116 109 102 91 92 88 82 79 78 78 78 77 75 73 68 61 53 43 33 20 43 55 55 54 53 46 44 42
64 62 51 128 138 155 164 174 163 160 159 153 147 146 142 131 122 103 102 94 89 86 82 80 77 75 73 73 71 67 59 43 44 27 6 54 57 55 54 52 51 50 43
158 110 89 72 116 142 154 160 172 149 155 156 154 151 133 124 122 112 101 92 93 94 89 84 80 75 69 65 64 64 59 51 47 34 39 52 55 59 60 59 57 54 51
163 148 127 125 96 116 175 163 174 143 144 133 134 145 134 128 126 118 112 105 91 86 84 81 76 67 69 70 66 66 61 56 46 45 41 47 56 58 56 52 50 49 50
172 180 174 96 19 266 300 233 185 157 163 161 157 148 139 140 130 132 126 113 102 86 93 87 87 86 76 71 75 72 60 54 45 51 41 41 57 55 54 52 52 53 52
194 190 194 191 225 243 257 266 234 166 177 170 163 155 150 152 144 136 124 114 105 103 101 100 90 84 74 72 68 73 65 58 54 49 39 46 53 54 51 52 52 51 49
194 200 191 212 216 219 226 220 190 145 139 160 170 168 157 156 144 140 122 104 103 100 95 95 102 97 81 82 74 71 70 63 58 55 47 31 52 51 49 50 48 48 49
202 194 201 203 214 206 211 165 145 138 129 126 122 151 156 155 148 137 124 105 115 110 104 99 90 91 93 83 73 68 69 67 65 57 53 50 40 43 49 47 48 46 47
182 191 188 193 192 183 190 141 129 113 106 120 123 129 146 145 143 135 130 124 118 111 110 106 107 96 89 89 85 66 65 69 69 65 62 56 51 44 40 52 48 47 48
191 182 188 190 184 139 119 107 103 100 94 94 100 110 120 131 135 130 130 140 133 122 108 117 86 113 108 97 92 74 59 61 59 67 66 58 55 46 41 47 47 48 45
184 186 179 183 157 129 111 101 79 80 70 58 79 110 111 123 126 124 119 131 119 122 110 112 115 82 114 117 98 79 61 50 59 60 61 64 59 52 53 54 47 37 45
187 180 181 167 164 149 146 145 141 116 139 72 60 112 106 121 133 131 127 130 150 134 135 134 123 123 100 126 109 85 52 47 58 51 56 60 56 50 55 49 55 44 27
186 188 185 185 169 173 161 126 125 124 78 93 88 67 120 122 122 136 146 138 137 125 131 142 140 121 105 258 132 120 151 318 50 47 43 64 54 50 56 56 60 50 38
191 189 187 177 173 177 145 116 99 89 90 98 103 113 95 121 134 127 134 139 126 132 150 148 149 135 142 51 62 138 127 181 138 354 51 60 58 55 53 55 56 53 41
198 178 188 179 176 166 157 156 170 163 159 162 137 124 113 119 117 120 128 123 127 129 142 141 147 142 127 138 107 42 60 136 151 135 4 72 83 69 66 60 69 58 45
172 177 181 177 178 166 171 171 170 161 110 124 118 122 110 101 106 114 121 123 126 122 128 137 136 141 123 135 133 154 77 68 69 121 147 327 51 63 79 95 85 72 45
158 171 174 179 176 171 174 174 175 151 150 143 146 145 145 134 118 110 113 119 124 130 136 131 123 120 116 103 123 139 145 141 151 121 107 158 237 314 32 104 85 64 57